Precipitable_Water
0.29 0.22 0.18 0.16 0.17 0.19 0.21 0.21 0.20 0.20 0.18 0.17 0.16 0.15 0.15 0.14 0.14 0.16 0.17 0.21 0.23 0.19 0.17 0.17 0.17 0.17 0.17 0.16 0.19 0.22 0.37 0.44 0.44 0.47 0.53 0.56 0.60 0.61 0.63 0.66 0.69 0.73 0.78 0.94 1.03 1.03 1.03 1.04 1.06 1.05 1.06 1.09 1.15 1.19 1.20 1.19 1.22 1.27 1.29 1.31 1.31 1.39 1.41 1.36 1.32 1.33 1.34 1.30 1.30 1.32 1.28 1.22 1.28 1.30 1.33 1.35 1.38 1.39 1.41 1.40 1.37 1.33 1.31 1.28 1.24 1.20
0.26 0.20 0.18 0.20 0.21 0.21 0.22 0.23 0.23 0.21 0.20 0.17 0.15 0.15 0.14 0.15 0.13 0.16 0.18 0.22 0.24 0.21 0.18 0.19 0.18 0.18 0.18 0.19 0.20 0.23 0.34 0.35 0.39 0.45 0.50 0.54 0.58 0.59 0.60 0.64 0.67 0.74 0.86 0.94 0.94 0.97 1.00 1.01 1.02 1.04 1.05 1.07 1.06 1.14 1.18 1.19 1.23 1.27 1.30 1.29 1.31 1.36 1.35 1.33 1.32 1.33 1.34 1.33 1.30 1.24 1.23 1.25 1.27 1.26 1.26 1.26 1.29 1.31 1.34 1.31 1.28 1.25 1.23 1.20 1.16 1.14
0.20 0.16 0.19 0.22 0.23 0.22 0.21 0.22 0.23 0.21 0.19 0.18 0.15 0.15 0.14 0.14 0.16 0.18 0.20 0.23 0.25 0.23 0.19 0.21 0.20 0.18 0.18 0.20 0.22 0.22 0.29 0.31 0.37 0.40 0.45 0.48 0.53 0.56 0.61 0.65 0.69 0.73 0.78 0.85 0.88 0.92 0.94 0.95 0.99 1.03 1.05 1.06 1.11 1.14 1.17 1.22 1.23 1.24 1.26 1.28 1.30 1.31 1.31 1.32 1.33 1.33 1.29 1.33 1.35 1.31 1.29 1.28 1.27 1.35 1.35 1.31 1.30 1.29 1.26 1.27 1.26 1.22 1.20 1.17 1.14 1.13
0.18 0.19 0.22 0.23 0.22 0.20 0.19 0.19 0.20 0.20 0.20 0.16 0.15 0.14 0.13 0.15 0.15 0.13 0.19 0.23 0.26 0.24 0.22 0.22 0.20 0.18 0.20 0.23 0.22 0.23 0.27 0.31 0.41 0.48 0.48 0.48 0.46 0.51 0.54 0.60 0.67 0.70 0.75 0.75 0.82 0.85 0.89 0.92 0.97 1.01 1.01 1.05 1.10 1.11 1.15 1.18 1.18 1.21 1.23 1.24 1.25 1.27 1.29 1.31 1.33 1.31 1.33 1.34 1.36 1.37 1.35 1.33 1.29 1.24 1.29 1.28 1.27 1.27 1.26 1.22 1.23 1.20 1.20 1.18 1.13 1.11
0.21 0.21 0.25 0.23 0.22 0.21 0.18 0.18 0.18 0.17 0.15 0.17 0.16 0.15 0.15 0.14 0.16 0.18 0.20 0.24 0.28 0.28 0.27 0.24 0.19 0.16 0.18 0.18 0.22 0.28 0.30 0.32 0.42 0.49 0.54 0.59 0.61 0.61 0.69 0.77 0.79 0.75 0.74 0.76 0.81 0.85 0.86 0.87 0.94 0.97 0.99 1.05 1.05 1.09 1.11 1.14 1.16 1.19 1.20 1.23 1.25 1.26 1.27 1.30 1.33 1.34 1.34 1.33 1.30 1.29 1.28 1.29 1.24 1.23 1.21 1.18 1.14 1.18 1.17 1.13 1.11 1.11 1.13 1.11 1.09 1.11
0.23 0.24 0.28 0.24 0.22 0.21 0.19 0.17 0.18 0.18 0.15 0.15 0.17 0.17 0.16 0.17 0.19 0.21 0.25 0.25 0.24 0.23 0.25 0.22 0.14 0.14 0.20 0.22 0.27 0.34 0.29 0.30 0.43 0.41 0.46 0.52 0.57 0.62 0.67 0.73 0.81 0.86 0.83 0.80 0.81 0.84 0.88 0.91 0.95 0.98 1.00 1.00 1.03 1.08 1.13 1.17 1.19 1.20 1.21 1.24 1.26 1.28 1.28 1.29 1.32 1.34 1.32 1.26 1.21 1.15 1.08 1.04 1.03 0.97 1.01 0.96 0.95 0.96 0.95 0.93 0.99 1.01 1.04 1.03 1.03 1.03
0.21 0.26 0.25 0.23 0.21 0.20 0.20 0.18 0.19 0.19 0.15 0.14 0.15 0.19 0.19 0.21 0.22 0.22 0.25 0.27 0.22 0.20 0.23 0.26 0.17 0.14 0.23 0.21 0.29 0.35 0.32 0.32 0.42 0.43 0.44 0.51 0.56 0.61 0.69 0.76 0.79 0.78 0.79 0.86 0.90 0.91 0.87 0.92 0.94 0.96 0.98 1.01 1.02 1.09 1.17 1.19 1.20 1.22 1.23 1.25 1.27 1.27 1.28 1.30 1.30 1.30 1.28 1.23 1.20 1.12 1.03 0.98 0.95 0.93 0.96 0.96 0.92 0.85 0.84 0.85 0.84 0.87 0.89 0.89 0.84 0.84
0.23 0.24 0.24 0.23 0.22 0.21 0.20 0.18 0.20 0.21 0.18 0.15 0.19 0.23 0.23 0.23 0.22 0.24 0.27 0.26 0.24 0.27 0.27 0.25 0.23 0.18 0.18 0.22 0.38 0.41 0.36 0.35 0.38 0.43 0.48 0.54 0.60 0.63 0.71 0.77 0.77 0.76 0.81 0.84 0.87 0.88 0.91 0.93 0.93 0.92 0.99 1.03 1.06 1.14 1.19 1.19 1.21 1.20 1.22 1.24 1.25 1.27 1.28 1.28 1.28 1.25 1.23 1.17 1.15 1.08 1.05 1.05 1.04 0.99 0.94 0.90 0.83 0.82 0.80 0.78 0.79 0.83 0.85 0.86 0.84 0.80
0.23 0.22 0.23 0.22 0.23 0.22 0.21 0.23 0.24 0.24 0.20 0.20 0.25 0.27 0.25 0.25 0.25 0.27 0.27 0.25 0.25 0.23 0.20 0.20 0.29 0.19 0.18 0.27 0.44 0.44 0.34 0.37 0.38 0.43 0.48 0.57 0.63 0.68 0.73 0.77 0.79 0.81 0.87 0.89 0.86 0.87 0.90 0.91 0.93 0.98 1.02 1.08 1.13 1.16 1.16 1.17 1.20 1.22 1.24 1.24 1.25 1.25 1.28 1.29 1.27 1.23 1.19 1.18 1.13 1.08 1.08 1.06 1.07 1.03 0.95 0.88 0.82 0.77 0.79 0.78 0.84 0.86 0.85 0.84 0.82 0.79
0.23 0.22 0.24 0.23 0.21 0.19 0.22 0.24 0.25 0.26 0.23 0.26 0.29 0.29 0.29 0.29 0.28 0.27 0.25 0.25 0.24 0.21 0.18 0.20 0.25 0.19 0.19 0.27 0.32 0.43 0.37 0.34 0.37 0.45 0.52 0.58 0.63 0.69 0.73 0.78 0.82 0.86 0.90 0.92 0.93 0.93 0.95 0.98 1.00 1.05 1.10 1.11 1.14 1.19 1.21 1.21 1.20 1.21 1.22 1.21 1.23 1.24 1.28 1.29 1.26 1.21 1.18 1.19 1.16 1.10 1.08 1.00 0.95 0.90 0.85 0.81 0.77 0.78 0.81 0.82 0.85 0.86 0.84 0.83 0.81 0.80
0.23 0.28 0.27 0.24 0.22 0.23 0.25 0.27 0.27 0.28 0.27 0.33 0.30 0.27 0.27 0.27 0.26 0.26 0.26 0.24 0.22 0.17 0.18 0.21 0.25 0.23 0.18 0.23 0.30 0.30 0.30 0.38 0.44 0.50 0.57 0.64 0.68 0.73 0.78 0.82 0.84 0.87 0.89 0.91 0.93 0.95 0.98 1.05 1.05 1.08 1.07 1.09 1.13 1.17 1.18 1.16 1.16 1.19 1.20 1.21 1.22 1.25 1.26 1.25 1.24 1.19 1.18 1.19 1.15 1.08 1.02 0.94 0.84 0.80 0.78 0.75 0.74 0.76 0.79 0.82 0.85 0.85 0.84 0.85 0.84 0.82
0.23 0.24 0.24 0.25 0.26 0.27 0.27 0.26 0.28 0.30 0.30 0.30 0.28 0.26 0.26 0.23 0.23 0.22 0.23 0.24 0.18 0.16 0.20 0.23 0.25 0.26 0.17 0.24 0.31 0.40 0.45 0.50 0.46 0.42 0.49 0.55 0.62 0.70 0.79 0.85 0.89 0.91 0.91 0.93 0.94 0.95 0.99 1.01 1.03 1.07 1.05 1.06 1.06 1.09 1.11 1.13 1.16 1.19 1.21 1.22 1.20 1.22 1.22 1.21 1.21 1.17 1.19 1.18 1.12 1.07 1.02 0.94 0.85 0.77 0.76 0.76 0.72 0.75 0.76 0.80 0.81 0.84 0.82 0.81 0.83 0.81
0.22 0.23 0.26 0.26 0.29 0.27 0.25 0.25 0.26 0.28 0.30 0.29 0.27 0.25 0.20 0.17 0.17 0.14 0.18 0.17 0.17 0.16 0.22 0.25 0.26 0.23 0.22 0.34 0.42 0.47 0.50 0.50 0.56 0.55 0.52 0.57 0.65 0.74 0.79 0.84 0.89 0.92 0.95 0.95 0.95 0.97 0.97 0.97 0.97 0.99 1.01 1.00 0.99 1.02 1.06 1.09 1.14 1.18 1.20 1.21 1.17 1.16 1.20 1.18 1.17 1.15 1.18 1.15 1.10 1.04 1.04 0.98 0.88 0.79 0.74 0.75 0.77 0.81 0.79 0.81 0.80 0.79 0.77 0.78 0.78 0.80
0.20 0.24 0.24 0.25 0.26 0.27 0.27 0.22 0.23 0.23 0.26 0.26 0.24 0.23 0.18 0.14 0.13 0.12 0.16 0.19 0.20 0.21 0.25 0.24 0.29 0.22 0.30 0.41 0.51 0.50 0.55 0.56 0.63 0.65 0.69 0.70 0.70 0.74 0.79 0.83 0.86 0.86 0.85 0.88 0.96 0.99 0.97 0.97 0.97 0.98 0.95 0.94 0.96 1.00 1.03 1.06 1.09 1.14 1.16 1.16 1.14 1.15 1.19 1.16 1.15 1.16 1.15 1.13 1.11 1.09 1.07 1.01 0.93 0.80 0.76 0.75 0.77 0.82 0.84 0.82 0.79 0.77 0.76 0.74 0.73 0.74
0.14 0.15 0.19 0.22 0.21 0.28 0.27 0.26 0.26 0.26 0.26 0.25 0.27 0.23 0.18 0.16 0.14 0.12 0.15 0.15 0.16 0.19 0.22 0.28 0.23 0.21 0.23 0.29 0.52 0.55 0.57 0.58 0.64 0.69 0.73 0.79 0.80 0.80 0.82 0.83 0.83 0.84 0.85 0.89 0.95 0.98 1.00 0.99 0.97 0.94 0.92 0.92 0.95 0.99 1.02 1.04 1.06 1.09 1.09 1.09 1.11 1.13 1.15 1.12 1.13 1.15 1.12 1.11 1.12 1.12 1.09 1.01 0.95 0.83 0.77 0.78 0.83 0.83 0.84 0.85 0.82 0.79 0.78 0.75 0.74 0.74
0.17 0.18 0.23 0.26 0.26 0.28 0.26 0.29 0.30 0.28 0.25 0.26 0.26 0.24 0.19 0.16 0.20 0.15 0.19 0.20 0.20 0.19 0.20 0.23 0.24 0.36 0.30 0.55 0.62 0.62 0.62 0.60 0.65 0.70 0.74 0.74 0.78 0.82 0.82 0.81 0.83 0.86 0.86 0.91 0.97 0.98 0.99 1.02 1.02 0.98 0.93 0.94 0.97 1.00 1.03 1.02 1.04 1.05 1.06 1.07 1.09 1.11 1.11 1.09 1.09 1.11 1.10 1.10 1.11 1.11 1.06 0.97 0.93 0.84 0.79 0.82 0.87 0.89 0.88 0.87 0.85 0.81 0.82 0.79 0.76 0.77
0.19 0.16 0.23 0.27 0.28 0.27 0.27 0.29 0.28 0.28 0.19 0.26 0.23 0.19 0.20 0.26 0.23 0.20 0.21 0.26 0.26 0.22 0.20 0.32 0.29 0.36 0.47 0.52 0.59 0.62 0.60 0.62 0.66 0.69 0.71 0.73 0.77 0.79 0.80 0.85 0.89 0.89 0.91 0.95 1.00 1.01 0.99 1.00 1.02 1.02 0.99 0.98 1.00 1.01 1.01 1.03 1.05 1.06 1.06 1.06 1.07 1.11 1.12 1.11 1.09 1.09 1.10 1.10 1.07 1.06 1.01 0.94 0.90 0.83 0.79 0.82 0.87 0.89 0.89 0.89 0.87 0.84 0.83 0.80 0.78 0.77
0.19 0.18 0.24 0.25 0.24 0.28 0.30 0.30 0.29 0.28 0.27 0.25 0.20 0.22 0.29 0.33 0.30 0.22 0.18 0.21 0.20 0.19 0.23 0.29 0.25 0.29 0.29 0.25 0.53 0.55 0.56 0.61 0.65 0.69 0.75 0.79 0.83 0.81 0.85 0.88 0.88 0.91 0.95 1.00 1.05 1.06 1.05 1.06 1.07 1.08 1.07 1.07 1.06 1.07 1.06 1.08 1.12 1.11 1.09 1.08 1.08 1.12 1.11 1.13 1.12 1.08 1.08 1.07 1.05 1.02 0.93 0.93 0.91 0.86 0.84 0.87 0.87 0.87 0.85 0.87 0.88 0.88 0.83 0.82 0.82 0.79
0.26 0.19 0.23 0.26 0.26 0.29 0.32 0.29 0.27 0.28 0.29 0.24 0.23 0.32 0.22 0.22 0.18 0.24 0.21 0.17 0.17 0.16 0.20 0.26 0.30 0.29 0.30 0.32 0.45 0.48 0.51 0.57 0.63 0.68 0.71 0.75 0.81 0.83 0.86 0.88 0.90 0.92 0.95 0.98 1.03 1.06 1.07 1.09 1.11 1.12 1.11 1.15 1.16 1.16 1.15 1.15 1.17 1.16 1.15 1.15 1.15 1.14 1.16 1.17 1.15 1.11 1.10 1.08 1.03 0.97 0.91 0.95 0.93 0.90 0.88 0.89 0.87 0.83 0.84 0.86 0.87 0.83 0.81 0.82 0.80 0.75
0.31 0.20 0.21 0.26 0.26 0.30 0.31 0.27 0.21 0.24 0.28 0.27 0.29 0.27 0.31 0.27 0.24 0.21 0.20 0.22 0.20 0.17 0.17 0.22 0.26 0.23 0.35 0.39 0.49 0.52 0.56 0.59 0.64 0.65 0.67 0.71 0.79 0.85 0.88 0.89 0.88 0.89 0.92 0.96 1.00 1.04 1.09 1.14 1.13 1.17 1.16 1.18 1.19 1.19 1.20 1.20 1.20 1.18 1.19 1.19 1.19 1.20 1.20 1.18 1.13 1.10 1.06 1.06 1.03 0.98 0.98 1.04 0.98 0.94 0.91 0.87 0.83 0.83 0.85 0.89 0.85 0.80 0.74 0.72 0.72 0.72
0.30 0.29 0.19 0.24 0.28 0.28 0.24 0.29 0.25 0.25 0.23 0.22 0.22 0.23 0.25 0.27 0.33 0.28 0.28 0.22 0.18 0.16 0.16 0.17 0.17 0.23 0.38 0.53 0.53 0.56 0.60 0.63 0.66 0.67 0.72 0.75 0.80 0.85 0.88 0.90 0.90 0.93 0.94 0.97 1.00 1.04 1.06 1.05 1.09 1.15 1.21 1.22 1.23 1.23 1.21 1.20 1.19 1.21 1.23 1.20 1.21 1.15 1.17 1.15 1.15 1.12 1.10 1.09 1.06 1.02 1.02 1.07 1.04 0.98 0.91 0.86 0.87 0.87 0.89 0.89 0.84 0.77 0.74 0.75 0.76 0.76
0.31 0.30 0.22 0.26 0.24 0.23 0.26 0.34 0.34 0.31 0.28 0.25 0.23 0.22 0.24 0.25 0.24 0.21 0.20 0.28 0.25 0.20 0.17 0.16 0.16 0.29 0.47 0.61 0.61 0.61 0.64 0.67 0.72 0.72 0.73 0.77 0.82 0.86 0.90 0.95 0.93 0.91 0.99 1.01 1.00 1.05 1.04 1.07 1.05 1.13 1.20 1.24 1.20 1.18 1.16 1.20 1.21 1.21 1.21 1.19 1.28 1.25 1.18 1.16 1.15 1.14 1.15 1.13 1.08 1.03 1.06 1.09 1.08 1.00 0.93 0.87 0.86 0.87 0.88 0.87 0.83 0.79 0.80 0.78 0.82 0.81
0.41 0.36 0.28 0.25 0.27 0.27 0.31 0.37 0.39 0.40 0.37 0.33 0.29 0.26 0.29 0.28 0.28 0.24 0.18 0.22 0.25 0.25 0.26 0.25 0.22 0.28 0.55 0.65 0.66 0.67 0.69 0.72 0.75 0.74 0.71 0.74 0.77 0.84 0.90 0.92 0.99 1.01 1.00 1.01 1.01 1.06 1.04 1.03 1.03 1.04 1.04 1.08 1.11 1.09 1.12 1.19 1.21 1.20 1.16 1.22 1.20 1.20 1.19 1.19 1.18 1.18 1.15 1.10 1.05 1.07 1.08 1.10 1.08 1.04 0.97 0.92 0.88 0.89 0.88 0.86 0.86 0.87 0.83 0.84 0.83 0.80
0.48 0.35 0.28 0.27 0.32 0.35 0.37 0.39 0.40 0.40 0.38 0.32 0.33 0.35 0.30 0.26 0.28 0.26 0.24 0.26 0.24 0.26 0.22 0.23 0.21 0.32 0.56 0.68 0.69 0.71 0.73 0.75 0.78 0.78 0.74 0.76 0.80 0.84 0.91 0.94 0.95 0.99 1.02 1.03 1.02 1.02 1.03 1.04 1.05 1.05 1.04 1.03 1.08 1.09 1.09 1.12 1.15 1.18 1.16 1.11 1.15 1.19 1.23 1.24 1.22 1.20 1.16 1.11 1.09 1.11 1.11 1.11 1.11 1.08 1.00 0.93 0.92 0.91 0.88 0.91 0.92 0.90 0.87 0.85 0.82 0.76
0.37 0.39 0.31 0.26 0.24 0.28 0.31 0.34 0.33 0.37 0.37 0.33 0.32 0.33 0.34 0.34 0.33 0.32 0.30 0.31 0.23 0.26 0.26 0.22 0.18 0.30 0.53 0.67 0.69 0.71 0.72 0.72 0.73 0.78 0.80 0.79 0.82 0.82 0.88 0.90 0.96 0.96 0.95 0.95 0.96 0.99 1.01 1.02 1.02 1.02 1.07 1.11 1.13 1.13 1.12 1.12 1.13 1.14 1.11 1.13 1.16 1.17 1.21 1.21 1.23 1.20 1.18 1.16 1.13 1.10 1.08 1.11 1.13 1.11 1.03 0.96 0.95 0.89 0.92 0.96 0.96 0.91 0.88 0.86 0.84 0.78
0.41 0.41 0.34 0.24 0.20 0.18 0.18 0.19 0.22 0.25 0.31 0.37 0.38 0.36 0.35 0.31 0.30 0.28 0.23 0.25 0.22 0.28 0.28 0.25 0.26 0.40 0.56 0.64 0.65 0.67 0.68 0.68 0.71 0.78 0.85 0.85 0.83 0.84 0.86 0.87 0.88 0.89 0.89 0.92 0.93 0.94 0.97 1.02 1.05 1.06 1.07 1.09 1.10 1.09 1.12 1.15 1.16 1.16 1.12 1.22 1.16 1.14 1.16 1.18 1.23 1.22 1.20 1.19 1.15 1.11 1.09 1.11 1.13 1.12 1.09 1.02 0.97 0.93 1.00 0.97 0.90 0.92 0.94 0.92 0.86 0.80
0.43 0.45 0.42 0.34 0.28 0.24 0.26 0.30 0.35 0.37 0.35 0.30 0.33 0.35 0.34 0.35 0.34 0.31 0.29 0.25 0.22 0.28 0.27 0.31 0.34 0.37 0.46 0.53 0.58 0.62 0.65 0.65 0.67 0.71 0.74 0.80 0.82 0.82 0.85 0.85 0.86 0.86 0.87 0.86 0.87 0.93 0.98 1.02 1.00 1.02 1.03 1.04 1.04 1.06 1.09 1.11 1.13 1.15 1.13 1.12 1.17 1.18 1.20 1.24 1.24 1.27 1.25 1.22 1.18 1.16 1.15 1.16 1.15 1.15 1.12 1.12 1.04 0.99 0.94 0.91 0.94 0.96 0.93 0.92 0.89 0.83
0.43 0.39 0.43 0.42 0.38 0.38 0.40 0.38 0.41 0.39 0.33 0.35 0.34 0.34 0.36 0.35 0.34 0.31 0.28 0.25 0.33 0.28 0.24 0.35 0.41 0.36 0.43 0.53 0.58 0.61 0.64 0.66 0.69 0.70 0.72 0.73 0.74 0.76 0.79 0.81 0.82 0.83 0.84 0.85 0.86 0.87 0.87 0.91 0.94 0.95 0.98 1.01 1.04 1.07 1.08 1.10 1.12 1.11 1.11 1.09 1.13 1.15 1.14 1.20 1.19 1.23 1.21 1.16 1.16 1.15 1.15 1.17 1.18 1.14 1.14 1.10 1.00 0.94 0.93 0.95 0.94 0.93 0.92 0.90 0.89 0.87
0.41 0.37 0.44 0.43 0.40 0.43 0.44 0.43 0.44 0.41 0.39 0.38 0.38 0.37 0.36 0.37 0.34 0.31 0.33 0.36 0.35 0.28 0.25 0.37 0.42 0.39 0.46 0.53 0.57 0.59 0.62 0.64 0.66 0.68 0.71 0.72 0.72 0.75 0.79 0.79 0.79 0.80 0.81 0.81 0.82 0.83 0.85 0.86 0.87 0.89 0.91 0.93 0.98 1.00 1.02 1.04 1.04 1.06 1.08 1.09 1.11 1.13 1.13 1.15 1.14 1.16 1.17 1.15 1.12 1.12 1.16 1.15 1.14 1.12 1.09 1.04 0.99 0.96 0.92 0.93 0.92 0.89 0.86 0.85 0.88 0.89
0.47 0.41 0.44 0.44 0.42 0.43 0.45 0.45 0.45 0.41 0.40 0.39 0.39 0.39 0.40 0.40 0.38 0.38 0.37 0.40 0.38 0.36 0.39 0.42 0.45 0.43 0.50 0.54 0.58 0.61 0.66 0.67 0.69 0.72 0.72 0.71 0.71 0.74 0.76 0.76 0.76 0.77 0.77 0.77 0.78 0.79 0.81 0.83 0.84 0.85 0.86 0.87 0.90 0.94 0.97 1.00 1.00 1.02 1.01 1.02 1.06 1.08 1.12 1.14 1.12 1.08 1.07 1.09 1.07 1.11 1.10 1.09 1.09 1.07 1.02 0.93 0.88 0.89 0.88 0.90 0.88 0.84 0.83 0.85 0.88 0.87
0.44 0.41 0.48 0.45 0.41 0.42 0.46 0.47 0.47 0.45 0.42 0.38 0.40 0.41 0.41 0.42 0.42 0.43 0.42 0.43 0.42 0.42 0.45 0.45 0.42 0.42 0.54 0.60 0.61 0.66 0.68 0.69 0.70 0.68 0.68 0.69 0.71 0.72 0.74 0.75 0.76 0.75 0.76 0.76 0.76 0.78 0.79 0.79 0.80 0.82 0.83 0.85 0.87 0.90 0.95 0.98 1.01 1.01 1.01 1.02 1.04 1.06 1.09 1.10 1.05 1.04 1.05 1.03 1.08 1.09 1.08 1.05 1.05 1.04 0.99 0.92 0.89 0.88 0.89 0.88 0.86 0.83 0.84 0.87 0.88 0.85
0.47 0.43 0.50 0.45 0.38 0.38 0.44 0.46 0.46 0.46 0.44 0.41 0.40 0.41 0.40 0.39 0.36 0.40 0.39 0.45 0.40 0.39 0.42 0.43 0.40 0.40 0.51 0.59 0.63 0.65 0.66 0.66 0.65 0.66 0.66 0.68 0.70 0.71 0.71 0.72 0.73 0.74 0.74 0.74 0.75 0.76 0.77 0.78 0.79 0.80 0.81 0.83 0.85 0.88 0.91 0.95 0.99 1.00 0.99 1.02 1.03 1.05 1.09 1.08 1.05 1.03 1.03 1.03 1.03 1.05 1.06 1.08 1.05 1.04 1.05 1.02 0.99 0.97 0.92 0.88 0.85 0.85 0.85 0.88 0.87 0.81
0.44 0.44 0.41 0.41 0.36 0.36 0.44 0.46 0.44 0.44 0.42 0.37 0.38 0.41 0.44 0.44 0.45 0.46 0.46 0.48 0.48 0.48 0.40 0.36 0.39 0.50 0.54 0.60 0.58 0.59 0.63 0.64 0.65 0.66 0.66 0.67 0.69 0.70 0.71 0.71 0.73 0.74 0.74 0.75 0.75 0.75 0.76 0.76 0.78 0.80 0.82 0.85 0.87 0.88 0.90 0.94 0.96 0.95 0.96 0.97 1.02 1.05 1.05 1.05 1.06 1.06 1.04 1.05 1.03 1.06 1.08 1.07 1.04 1.01 1.00 1.00 0.99 0.96 0.93 0.89 0.86 0.87 0.89 0.86 0.81 0.75
0.43 0.42 0.39 0.41 0.33 0.36 0.43 0.44 0.45 0.38 0.28 0.30 0.48 0.53 0.50 0.46 0.47 0.45 0.43 0.46 0.51 0.53 0.49 0.53 0.52 0.56 0.57 0.58 0.58 0.58 0.61 0.63 0.65 0.68 0.72 0.72 0.72 0.72 0.73 0.74 0.74 0.75 0.77 0.77 0.77 0.76 0.77 0.79 0.79 0.81 0.83 0.85 0.89 0.91 0.93 0.93 0.91 0.91 0.93 0.92 0.94 0.95 0.97 0.98 0.99 1.01 1.03 1.05 1.04 1.03 1.05 1.06 1.05 1.02 1.02 1.04 1.06 1.05 1.01 0.98 0.97 0.97 0.97 0.96 0.93 0.87
0.38 0.39 0.37 0.41 0.34 0.32 0.38 0.40 0.34 0.27 0.28 0.45 0.55 0.55 0.55 0.54 0.53 0.49 0.51 0.52 0.53 0.56 0.57 0.56 0.57 0.57 0.59 0.61 0.62 0.63 0.65 0.67 0.69 0.69 0.70 0.73 0.73 0.74 0.75 0.76 0.77 0.77 0.76 0.76 0.76 0.77 0.78 0.79 0.80 0.80 0.81 0.84 0.87 0.89 0.90 0.89 0.89 0.88 0.88 0.86 0.85 0.86 0.86 0.88 0.89 0.92 0.95 0.98 1.02 1.05 1.08 1.11 1.07 1.01 1.05 1.08 1.10 1.09 1.06 1.05 1.05 1.06 1.03 1.01 1.00 0.97
0.37 0.35 0.37 0.35 0.37 0.38 0.34 0.32 0.21 0.24 0.42 0.50 0.52 0.54 0.57 0.55 0.53 0.51 0.46 0.52 0.54 0.54 0.55 0.53 0.56 0.60 0.63 0.64 0.65 0.67 0.68 0.69 0.70 0.71 0.73 0.76 0.77 0.74 0.74 0.75 0.77 0.77 0.77 0.77 0.77 0.77 0.78 0.79 0.80 0.80 0.80 0.82 0.84 0.86 0.87 0.86 0.87 0.85 0.82 0.83 0.81 0.80 0.80 0.81 0.82 0.83 0.87 0.87 0.89 0.95 1.00 1.03 1.04 1.05 1.05 1.04 1.05 1.02 1.02 1.04 1.05 1.03 1.06 1.07 1.06 1.05
0.39 0.38 0.37 0.30 0.38 0.27 0.28 0.28 0.26 0.39 0.39 0.44 0.46 0.48 0.50 0.45 0.46 0.44 0.37 0.44 0.53 0.55 0.56 0.54 0.56 0.60 0.63 0.65 0.68 0.68 0.69 0.69 0.65 0.65 0.73 0.75 0.76 0.78 0.77 0.78 0.80 0.80 0.80 0.80 0.81 0.80 0.81 0.81 0.81 0.82 0.84 0.84 0.84 0.83 0.83 0.84 0.85 0.85 0.83 0.81 0.80 0.79 0.78 0.79 0.78 0.79 0.80 0.80 0.82 0.83 0.85 0.88 0.91 0.93 0.95 0.98 1.00 1.00 1.03 1.03 1.03 1.04 1.04 1.00 1.03 1.03
0.43 0.34 0.38 0.30 0.30 0.33 0.27 0.24 0.26 0.26 0.23 0.32 0.44 0.53 0.56 0.56 0.56 0.55 0.46 0.42 0.53 0.57 0.59 0.57 0.55 0.56 0.58 0.61 0.62 0.65 0.67 0.61 0.55 0.59 0.69 0.73 0.76 0.75 0.76 0.77 0.79 0.81 0.81 0.83 0.83 0.83 0.83 0.83 0.83 0.83 0.81 0.81 0.82 0.84 0.85 0.85 0.84 0.82 0.81 0.80 0.80 0.78 0.77 0.76 0.75 0.75 0.75 0.74 0.74 0.75 0.77 0.79 0.81 0.82 0.85 0.87 0.86 0.89 0.94 1.00 1.04 1.04 1.04 0.99 1.00 1.00
0.43 0.42 0.39 0.33 0.31 0.30 0.27 0.22 0.22 0.20 0.26 0.39 0.42 0.48 0.53 0.57 0.56 0.54 0.42 0.34 0.49 0.56 0.57 0.55 0.52 0.54 0.55 0.55 0.56 0.58 0.53 0.47 0.48 0.54 0.63 0.66 0.68 0.70 0.70 0.72 0.74 0.75 0.75 0.76 0.77 0.78 0.81 0.83 0.84 0.84 0.84 0.82 0.80 0.82 0.84 0.85 0.84 0.81 0.81 0.79 0.78 0.78 0.75 0.73 0.73 0.74 0.77 0.78 0.77 0.75 0.76 0.78 0.78 0.80 0.80 0.78 0.78 0.79 0.80 0.83 0.90 0.98 1.03 1.03 1.00 0.98
0.36 0.35 0.36 0.32 0.30 0.30 0.28 0.24 0.23 0.28 0.28 0.38 0.44 0.47 0.52 0.55 0.54 0.45 0.26 0.28 0.46 0.54 0.56 0.55 0.53 0.53 0.53 0.53 0.53 0.50 0.47 0.41 0.45 0.52 0.62 0.64 0.66 0.68 0.67 0.67 0.68 0.69 0.70 0.71 0.73 0.75 0.77 0.78 0.79 0.78 0.78 0.77 0.80 0.85 0.85 0.85 0.83 0.81 0.80 0.80 0.82 0.79 0.76 0.72 0.72 0.71 0.72 0.73 0.77 0.81 0.81 0.78 0.77 0.78 0.77 0.76 0.76 0.75 0.74 0.75 0.75 0.76 0.80 0.86 0.91 0.91
0.29 0.31 0.32 0.28 0.29 0.29 0.27 0.28 0.30 0.31 0.39 0.45 0.45 0.49 0.52 0.55 0.48 0.29 0.22 0.34 0.49 0.54 0.55 0.54 0.53 0.52 0.52 0.51 0.50 0.44 0.47 0.49 0.53 0.56 0.59 0.60 0.58 0.59 0.61 0.62 0.62 0.62 0.62 0.63 0.65 0.68 0.69 0.71 0.73 0.74 0.74 0.75 0.75 0.76 0.76 0.78 0.79 0.78 0.79 0.79 0.78 0.76 0.78 0.77 0.76 0.73 0.71 0.71 0.72 0.73 0.76 0.79 0.79 0.78 0.77 0.76 0.74 0.73 0.72 0.72 0.71 0.71 0.71 0.71 0.72 0.76
0.29 0.30 0.31 0.31 0.28 0.26 0.29 0.25 0.27 0.33 0.41 0.46 0.48 0.49 0.53 0.45 0.29 0.27 0.45 0.54 0.52 0.53 0.54 0.54 0.52 0.53 0.52 0.50 0.50 0.49 0.51 0.54 0.55 0.55 0.54 0.51 0.51 0.53 0.54 0.55 0.55 0.56 0.58 0.59 0.59 0.57 0.57 0.60 0.64 0.65 0.67 0.69 0.70 0.71 0.71 0.70 0.69 0.69 0.70 0.72 0.73 0.75 0.78 0.78 0.77 0.75 0.72 0.72 0.71 0.71 0.72 0.72 0.73 0.74 0.74 0.75 0.75 0.73 0.72 0.72 0.71 0.70 0.69 0.69 0.69 0.69
0.30 0.27 0.26 0.26 0.30 0.30 0.29 0.26 0.25 0.22 0.38 0.48 0.48 0.46 0.52 0.37 0.38 0.48 0.52 0.53 0.53 0.53 0.52 0.53 0.52 0.52 0.52 0.50 0.52 0.51 0.51 0.51 0.51 0.51 0.51 0.51 0.50 0.50 0.50 0.50 0.50 0.51 0.52 0.52 0.52 0.54 0.54 0.54 0.55 0.56 0.58 0.63 0.67 0.69 0.67 0.66 0.65 0.66 0.66 0.66 0.68 0.71 0.72 0.73 0.73 0.73 0.73 0.72 0.72 0.71 0.70 0.70 0.70 0.71 0.72 0.73 0.74 0.73 0.73 0.73 0.73 0.72 0.71 0.70 0.70 0.69
0.38 0.28 0.29 0.30 0.35 0.25 0.26 0.23 0.24 0.35 0.42 0.51 0.49 0.40 0.49 0.49 0.53 0.52 0.52 0.48 0.52 0.52 0.51 0.51 0.52 0.53 0.53 0.52 0.50 0.49 0.49 0.49 0.49 0.50 0.50 0.51 0.51 0.51 0.49 0.48 0.48 0.48 0.48 0.49 0.50 0.51 0.52 0.51 0.52 0.53 0.55 0.56 0.56 0.57 0.60 0.61 0.61 0.61 0.60 0.62 0.66 0.68 0.68 0.68 0.68 0.68 0.68 0.68 0.68 0.68 0.67 0.67 0.67 0.67 0.67 0.68 0.68 0.68 0.69 0.70 0.71 0.71 0.71 0.71 0.70 0.69
0.38 0.33 0.36 0.29 0.39 0.33 0.30 0.34 0.42 0.48 0.49 0.53 0.52 0.50 0.54 0.56 0.56 0.56 0.54 0.52 0.50 0.51 0.54 0.51 0.51 0.52 0.53 0.51 0.49 0.49 0.47 0.48 0.48 0.48 0.47 0.47 0.47 0.46 0.45 0.46 0.45 0.46 0.46 0.48 0.50 0.51 0.50 0.49 0.49 0.50 0.50 0.52 0.53 0.54 0.54 0.54 0.52 0.52 0.53 0.59 0.62 0.61 0.61 0.60 0.60 0.60 0.61 0.62 0.63 0.63 0.64 0.64 0.64 0.65 0.65 0.65 0.65 0.63 0.65 0.66 0.69 0.70 0.71 0.70 0.68 0.68
0.43 0.42 0.44 0.39 0.37 0.44 0.45 0.45 0.48 0.48 0.49 0.50 0.53 0.55 0.53 0.55 0.57 0.58 0.55 0.52 0.52 0.52 0.53 0.51 0.52 0.51 0.51 0.51 0.49 0.48 0.48 0.48 0.48 0.48 0.48 0.48 0.47 0.46 0.46 0.45 0.45 0.46 0.46 0.47 0.48 0.49 0.49 0.50 0.49 0.48 0.48 0.49 0.51 0.51 0.52 0.52 0.51 0.49 0.50 0.52 0.53 0.53 0.54 0.54 0.54 0.54 0.54 0.55 0.55 0.56 0.58 0.58 0.59 0.60 0.61 0.61 0.63 0.63 0.64 0.64 0.64 0.66 0.68 0.67 0.65 0.70
0.39 0.42 0.39 0.34 0.39 0.36 0.30 0.44 0.44 0.45 0.48 0.49 0.50 0.53 0.55 0.57 0.56 0.57 0.56 0.54 0.53 0.53 0.53 0.53 0.53 0.52 0.52 0.51 0.50 0.48 0.48 0.49 0.49 0.49 0.48 0.48 0.47 0.46 0.45 0.45 0.46 0.46 0.46 0.46 0.48 0.49 0.48 0.47 0.46 0.46 0.46 0.46 0.48 0.48 0.48 0.48 0.48 0.48 0.48 0.48 0.49 0.48 0.48 0.47 0.46 0.46 0.46 0.46 0.47 0.48 0.49 0.49 0.50 0.51 0.52 0.52 0.53 0.55 0.56 0.58 0.58 0.58 0.58 0.60 0.59 0.59
0.30 0.40 0.32 0.34 0.34 0.32 0.34 0.42 0.45 0.48 0.48 0.50 0.49 0.48 0.49 0.51 0.54 0.56 0.58 0.58 0.58 0.58 0.57 0.55 0.54 0.52 0.52 0.49 0.49 0.48 0.48 0.50 0.49 0.48 0.47 0.46 0.46 0.45 0.46 0.46 0.46 0.46 0.46 0.47 0.47 0.46 0.45 0.45 0.43 0.43 0.43 0.43 0.45 0.46 0.46 0.45 0.45 0.46 0.46 0.45 0.45 0.45 0.44 0.43 0.43 0.42 0.41 0.42 0.42 0.42 0.42 0.42 0.43 0.43 0.44 0.45 0.45 0.45 0.45 0.47 0.49 0.48 0.48 0.48 0.49 0.50
0.33 0.36 0.25 0.31 0.29 0.35 0.40 0.42 0.44 0.45 0.46 0.47 0.49 0.51 0.52 0.53 0.53 0.53 0.55 0.55 0.56 0.56 0.56 0.57 0.58 0.55 0.54 0.52 0.51 0.49 0.48 0.48 0.47 0.47 0.46 0.45 0.45 0.45 0.45 0.44 0.44 0.43 0.43 0.42 0.43 0.43 0.41 0.41 0.40 0.40 0.39 0.39 0.41 0.41 0.41 0.40 0.41 0.41 0.41 0.41 0.41 0.40 0.38 0.37 0.37 0.37 0.36 0.36 0.37 0.37 0.38 0.38 0.38 0.38 0.38 0.37 0.38 0.39 0.40 0.39 0.39 0.40 0.40 0.44 0.45 0.45
0.29 0.24 0.29 0.28 0.24 0.25 0.27 0.34 0.40 0.32 0.33 0.40 0.44 0.46 0.48 0.50 0.50 0.49 0.50 0.50 0.51 0.51 0.51 0.51 0.51 0.52 0.51 0.50 0.48 0.47 0.44 0.45 0.45 0.45 0.43 0.42 0.41 0.41 0.42 0.41 0.41 0.40 0.40 0.41 0.41 0.40 0.39 0.38 0.37 0.36 0.36 0.36 0.37 0.36 0.35 0.35 0.36 0.36 0.36 0.35 0.34 0.33 0.31 0.30 0.29 0.29 0.28 0.29 0.29 0.30 0.30 0.30 0.31 0.31 0.31 0.31 0.31 0.31 0.31 0.35 0.36 0.35 0.33 0.33 0.36 0.38
0.24 0.25 0.26 0.22 0.21 0.22 0.31 0.35 0.37 0.36 0.37 0.39 0.40 0.42 0.42 0.43 0.42 0.40 0.40 0.41 0.42 0.43 0.44 0.42 0.42 0.42 0.43 0.44 0.45 0.43 0.42 0.41 0.40 0.40 0.39 0.39 0.40 0.40 0.40 0.39 0.38 0.38 0.38 0.38 0.36 0.35 0.35 0.34 0.34 0.34 0.33 0.33 0.34 0.34 0.34 0.33 0.33 0.33 0.33 0.33 0.32 0.30 0.28 0.27 0.25 0.24 0.24 0.24 0.24 0.25 0.25 0.25 0.25 0.25 0.25 0.26 0.26 0.27 0.26 0.26 0.27 0.29 0.30 0.30 0.30 0.30
Wind_Speed
16 16 17 17 16 16 17 17 16 16 14 15 15 15 15 15 16 16 15 16 15 16 19 19 20 20 21 21 19 21 21 19 20 19 18 18 18 18 18 18 18 18 17 16 15 14 12 12 12 11 10 9 9 9 10 10 10 10 10 10 9 10 10 10 10 10 11 12 12 11 11 11 11 10 10 10 10 10 10 10 10 10 11 11 11 10
15 17 17 16 16 17 17 17 16 16 15 15 16 16 16 16 16 16 15 16 15 15 17 18 19 21 21 19 18 20 21 20 21 20 19 19 18 18 18 18 19 18 17 17 16 15 13 13 12 12 11 10 9 9 10 10 9 10 10 11 10 10 10 10 10 11 11 12 12 12 11 11 11 11 11 10 10 10 10 10 10 10 10 10 10 9
15 17 17 16 16 17 16 15 15 16 16 15 15 15 16 15 15 15 15 15 14 13 16 16 18 20 20 17 17 21 22 22 23 22 22 21 19 18 18 19 19 19 18 17 16 15 14 13 12 12 11 10 10 10 10 10 10 10 11 11 11 10 11 11 11 11 11 12 12 11 11 11 11 11 11 11 10 10 10 10 10 10 10 9 9 8
15 15 16 16 15 15 16 15 15 15 15 15 15 14 16 15 14 14 13 13 14 14 15 15 17 18 16 15 16 18 20 20 20 21 22 22 21 20 19 19 20 20 19 18 17 16 14 14 13 12 11 11 11 10 11 11 11 11 12 12 12 12 11 11 12 11 12 12 11 11 11 11 11 11 12 11 10 10 10 10 10 10 9 8 8 8
17 15 12 12 13 14 15 15 15 15 15 16 16 15 15 15 15 15 14 13 14 14 13 13 13 13 13 13 14 15 17 17 17 18 20 20 20 18 17 18 20 20 19 18 17 16 15 14 13 12 12 11 11 11 12 12 12 12 13 13 13 12 12 12 12 12 12 12 11 11 12 12 11 12 12 12 11 10 10 10 10 9 8 8 8 8
17 15 11 10 12 13 14 15 15 15 15 15 16 16 16 16 16 16 14 13 12 13 12 9 9 11 11 11 13 14 14 15 16 17 19 20 19 18 16 17 19 20 18 17 16 15 15 14 13 13 12 12 12 12 12 12 12 12 13 13 13 12 12 13 13 13 13 12 12 12 12 13 13 13 13 12 12 11 10 10 9 9 8 8 8 8
15 13 12 12 12 12 13 14 14 14 14 15 15 16 16 16 15 15 15 14 13 13 12 9 9 12 12 11 13 14 13 14 15 15 17 18 19 18 17 18 20 19 18 17 15 15 14 14 13 13 13 13 13 12 13 13 12 13 13 13 13 13 13 13 13 13 13 13 13 13 13 13 14 13 13 12 12 11 11 10 10 9 8 8 8 8
13 13 12 12 11 12 12 12 13 13 13 14 13 13 14 15 15 15 14 14 14 13 12 10 10 12 12 12 13 13 13 14 14 15 16 17 18 18 18 18 20 19 18 17 16 15 14 14 13 13 13 13 13 13 13 13 13 13 14 14 14 13 13 13 13 13 14 14 14 14 14 14 14 13 13 12 11 11 11 11 10 9 8 7 7 7
13 13 13 12 11 11 11 11 11 12 12 14 13 12 13 14 14 14 13 13 13 11 12 11 10 10 11 13 12 12 13 14 15 16 16 17 18 18 18 19 19 18 17 16 16 15 14 13 13 13 13 13 14 14 14 13 13 14 14 14 14 14 14 14 13 14 14 14 14 14 15 15 14 13 13 12 12 12 12 11 10 9 8 7 6 6
13 14 13 11 11 11 12 11 11 12 13 13 12 12 13 12 12 12 12 12 11 10 12 13 10 10 11 12 12 12 13 14 14 15 15 16 17 17 18 19 19 17 16 16 15 15 14 13 12 13 13 14 14 14 14 14 14 14 14 14 14 15 15 14 14 14 15 15 15 15 15 15 14 14 13 12 12 13 12 11 10 9 8 8 7 7
13 13 13 12 12 12 12 12 11 14 14 11 10 12 13 11 11 12 12 11 10 11 13 14 12 11 10 11 13 12 13 14 14 14 14 15 16 17 18 18 18 16 16 16 15 14 13 12 12 13 13 14 14 14 14 14 14 14 14 14 14 14 15 15 14 15 15 16 16 16 15 15 14 14 14 13 13 13 13 12 11 10 9 9 8 7
14 14 13 13 14 13 12 12 11 13 13 11 10 12 12 12 11 11 11 11 11 12 13 13 13 11 10 11 12 11 11 13 14 14 15 16 17 18 17 16 16 15 15 15 14 13 13 12 12 13 14 14 15 14 14 14 14 15 15 15 15 15 15 15 15 15 16 16 16 16 15 15 14 14 14 14 14 14 13 12 11 10 9 9 8 7
15 15 14 12 14 13 12 12 11 11 12 11 11 11 10 10 9 10 11 12 12 13 12 12 12 11 11 11 11 10 10 12 14 13 13 15 16 16 16 15 16 15 15 14 13 13 12 12 12 13 14 14 15 15 15 15 15 15 15 15 15 15 16 16 16 16 16 17 16 16 15 15 14 14 15 14 14 14 13 13 12 11 10 9 8 7
15 14 13 12 12 13 13 12 12 11 12 12 13 12 11 10 9 10 12 11 12 13 12 11 12 11 11 11 10 10 11 13 13 12 12 14 15 16 16 17 17 17 15 13 13 13 13 12 12 14 15 15 15 15 15 15 15 15 15 15 15 15 16 16 16 17 17 17 16 16 16 15 15 15 15 15 14 14 13 13 12 11 10 9 8 8
14 13 13 13 12 11 12 12 12 12 11 12 12 12 12 12 11 11 12 12 12 12 11 10 11 11 12 12 11 11 10 10 11 11 12 13 13 14 16 17 17 16 15 13 12 13 13 13 13 14 15 15 15 15 15 15 15 15 15 15 15 15 16 17 17 17 17 17 16 16 17 16 16 15 15 15 14 14 13 13 12 11 10 10 9 9
14 14 14 13 12 11 11 11 11 10 11 12 12 11 12 13 12 11 11 12 12 11 10 10 11 12 12 12 11 9 8 6 7 9 11 11 11 11 12 14 14 14 13 12 11 12 12 13 15 15 15 15 15 15 15 16 16 15 15 15 15 16 16 17 17 17 17 17 17 17 17 17 17 16 16 15 15 14 14 13 12 11 10 10 9 9
13 15 14 12 12 12 12 12 11 12 12 11 12 13 13 12 12 11 11 10 10 11 11 11 11 11 11 11 10 9 8 7 7 8 9 9 10 10 10 11 12 12 12 11 11 12 12 13 15 16 15 15 16 16 16 17 17 16 16 16 16 16 17 17 17 17 17 17 17 17 17 17 17 16 16 16 15 15 14 14 13 13 12 11 10 9
14 14 14 12 12 13 13 13 12 12 13 12 13 15 13 11 11 12 11 9 9 11 12 11 12 12 11 11 11 10 9 9 9 9 9 9 10 11 10 10 11 11 11 11 12 13 13 14 15 16 16 15 16 16 17 17 18 17 16 16 16 17 17 17 17 17 16 16 16 16 17 17 17 17 16 16 16 15 14 13 13 13 13 12 11 10
14 14 14 13 13 12 11 12 12 12 13 13 13 13 12 11 12 12 11 10 10 12 12 11 12 12 12 11 11 11 11 12 11 10 10 10 10 11 11 11 11 10 11 12 13 13 14 14 16 17 17 16 16 17 17 18 18 18 17 17 17 17 17 17 17 17 16 16 16 16 17 17 17 17 16 16 16 16 15 14 13 13 12 11 11 11
13 14 14 14 13 11 9 11 12 13 13 13 13 12 12 12 12 12 13 12 12 12 12 12 12 13 13 12 12 12 13 13 12 12 11 11 11 11 12 13 12 11 11 12 13 14 14 14 15 16 17 17 16 17 17 17 18 18 18 18 18 18 18 18 17 17 16 16 16 17 17 17 17 17 17 16 17 16 15 14 13 12 11 10 10 11
12 13 15 14 12 11 10 11 12 13 14 14 14 14 14 13 12 12 12 12 12 12 12 12 12 13 13 12 11 12 13 13 13 12 12 11 10 11 13 14 14 12 12 13 13 14 14 13 13 14 16 17 17 17 17 18 18 19 19 19 19 19 18 18 18 18 17 17 17 17 17 17 18 17 17 17 17 16 15 14 12 11 11 10 10 10
12 13 14 14 13 12 13 12 11 12 13 14 15 15 15 15 14 12 11 12 11 12 12 12 12 13 12 12 11 11 12 12 12 12 11 11 10 12 13 14 14 13 13 13 12 12 13 13 13 13 14 16 17 17 17 17 18 18 18 18 18 18 17 18 18 18 18 18 18 17 18 18 18 17 17 17 17 17 16 14 13 12 11 11 10 10
13 12 12 14 14 14 15 13 11 11 12 12 13 14 14 15 15 14 13 12 11 11 11 10 10 11 11 11 10 10 11 11 10 11 11 10 10 11 12 12 12 11 11 11 11 10 11 11 12 12 13 15 16 17 17 17 17 17 17 17 17 17 17 17 18 19 19 18 18 18 18 18 19 18 18 18 18 18 16 16 14 12 12 12 11 11
15 12 12 14 14 14 14 13 12 12 11 11 11 13 14 14 15 15 15 13 12 12 11 10 10 11 11 10 9 9 9 9 9 10 10 10 10 10 9 9 9 9 9 9 10 10 10 10 10 10 11 13 14 15 16 16 16 16 17 17 17 17 17 17 18 19 19 19 19 19 18 18 19 19 19 18 19 19 18 17 15 13 13 12 12 11
17 15 14 13 12 13 13 13 13 13 12 12 12 12 13 13 13 14 14 12 12 13 12 11 11 12 11 10 9 9 8 8 9 9 10 11 11 10 9 7 7 7 8 8 9 9 9 9 9 9 10 11 12 13 14 15 15 16 16 17 17 18 18 18 18 19 20 19 19 20 19 19 19 19 20 19 19 19 19 18 16 14 14 13 13 12
16 16 16 15 14 14 15 14 14 13 13 14 13 13 12 12 13 14 14 13 13 13 12 11 12 12 12 10 9 8 8 8 8 8 9 9 9 9 8 6 6 7 7 7 8 8 9 8 8 8 9 10 10 12 13 14 15 16 17 17 17 18 19 19 19 20 20 19 19 20 20 20 20 19 20 21 21 20 20 19 17 16 16 15 14 14
14 15 17 17 16 16 16 16 15 14 14 14 14 14 13 12 12 13 13 14 15 13 11 12 13 13 13 12 10 10 9 9 9 8 7 6 6 6 5 5 5 6 6 6 6 7 7 7 7 7 7 8 8 10 11 13 14 15 16 17 17 17 17 17 18 19 19 19 19 20 21 21 21 20 21 22 22 21 21 20 19 18 18 17 16 15
14 14 16 16 15 14 14 15 14 14 15 14 14 14 14 13 12 11 11 13 15 13 12 13 13 13 13 12 11 11 10 10 9 8 7 6 5 5 5 4 4 4 4 4 4 5 6 6 6 6 6 6 7 8 9 10 11 12 14 15 16 16 16 16 16 17 17 17 18 20 20 20 20 20 21 22 22 22 21 20 19 19 18 17 17 17
13 14 16 16 15 14 13 12 12 13 14 14 13 13 14 14 13 12 12 14 14 14 14 14 13 13 13 12 11 11 10 10 9 8 7 6 5 5 4 3 3 3 3 2 3 4 5 5 5 6 6 6 6 6 7 8 9 9 10 12 13 14 14 15 15 15 15 15 15 17 17 17 18 18 18 19 20 20 20 19 19 18 18 18 18 17
12 13 15 16 15 14 14 13 12 11 13 13 13 13 13 13 13 13 14 14 12 12 13 13 12 12 12 12 12 11 10 10 9 8 7 6 6 4 3 3 3 3 3 2 2 3 4 4 4 5 5 6 6 6 6 7 7 8 8 9 10 11 12 13 14 14 14 14 14 15 15 15 16 16 16 17 18 19 19 19 19 18 18 18 18 18
11 12 14 14 14 14 15 15 14 13 13 12 12 12 13 13 14 14 15 14 12 11 11 12 12 12 12 12 12 11 10 10 9 8 8 8 8 6 5 5 5 4 4 3 3 4 4 4 4 4 5 5 5 5 5 6 6 7 7 7 8 9 11 12 12 12 13 13 14 14 14 15 15 16 16 17 17 18 19 19 19 18 18 18 19 18
10 11 12 12 13 13 14 15 15 15 15 14 13 12 13 14 15 16 16 16 16 15 14 13 14 14 13 13 12 11 10 9 9 9 9 9 9 8 6 6 6 5 5 5 4 4 4 4 4 4 4 5 5 5 5 5 5 5 6 6 7 8 9 10 10 11 11 12 13 14 14 14 15 15 15 16 17 18 18 18 18 19 19 19 19 19
9 10 10 11 11 11 12 14 15 14 14 15 15 15 15 15 15 15 16 16 17 17 16 16 16 14 14 14 13 11 10 9 9 10 9 10 10 9 7 7 6 6 5 5 4 4 5 5 5 4 4 4 4 4 5 5 5 5 6 6 7 7 8 8 9 10 10 11 12 13 14 14 15 15 15 16 17 17 18 18 19 19 19 19 18 19
8 8 9 9 9 10 11 11 12 12 13 15 15 15 15 15 14 13 14 14 14 15 15 15 15 15 15 15 14 13 12 11 11 11 11 10 11 10 8 7 7 6 6 6 6 5 5 5 5 4 4 4 4 4 5 5 5 6 6 6 6 7 7 8 8 9 9 10 11 12 13 14 15 15 15 16 16 17 17 18 18 19 19 19 19 19
10 9 9 8 8 9 9 8 8 10 12 13 13 13 13 13 12 12 12 12 12 13 13 14 15 15 15 14 14 13 13 12 12 12 12 11 12 11 10 8 7 7 6 6 6 6 6 5 5 5 4 4 5 5 5 5 6 6 6 6 6 6 7 7 8 8 9 9 9 10 11 12 13 14 15 15 16 16 17 16 17 18 18 18 19 20
12 11 11 9 8 9 9 8 8 9 9 10 11 11 11 11 11 10 10 11 12 12 13 13 14 14 13 13 13 13 13 12 11 11 11 10 11 11 10 9 9 8 7 7 7 7 7 6 6 6 5 5 5 5 5 5 6 6 7 6 6 6 7 7 7 7 8 8 8 9 10 11 12 13 14 15 16 17 17 17 18 18 19 19 19 20
13 13 13 11 10 10 10 9 9 9 9 9 10 10 10 11 11 11 11 11 11 11 12 13 14 14 13 12 12 12 12 10 9 10 10 9 9 9 9 9 9 9 8 8 8 8 8 8 8 7 7 7 6 6 6 6 6 6 6 7 7 7 7 7 7 7 8 8 9 9 10 11 11 12 13 14 15 15 16 17 18 19 20 20 21 20
13 14 15 14 12 12 11 10 10 10 10 10 10 10 10 11 11 11 11 11 11 11 12 13 14 14 14 13 13 13 11 10 9 11 10 9 9 9 9 9 9 9 9 9 9 9 9 10 10 9 9 9 8 8 8 8 8 7 7 7 7 8 7 7 7 8 8 9 9 10 10 11 11 12 12 13 14 14 15 16 17 18 19 20 21 20
11 13 14 13 13 13 13 11 11 12 12 12 12 11 10 11 11 10 10 11 12 13 13 13 13 13 14 14 13 13 11 11 12 13 12 11 11 11 10 10 10 10 10 9 9 9 9 10 10 9 9 9 9 10 11 11 11 10 9 9 9 9 9 9 9 9 10 10 11 11 11 12 12 12 13 13 14 15 15 16 17 18 19 20 21 22
11 12 12 13 13 14 13 12 12 12 12 13 13 12 11 12 12 10 9 11 13 14 13 13 13 13 13 13 13 12 12 12 14 14 13 12 12 12 11 11 11 11 10 10 10 10 10 10 9 9 9 8 9 9 10 11 11 11 11 11 11 10 10 10 10 10 11 12 12 12 12 12 12 13 14 14 15 16 16 17 18 19 20 21 22 23
12 12 12 12 13 13 13 12 12 12 13 13 13 13 13 13 13 13 12 13 13 13 13 13 13 14 14 14 13 12 12 13 13 14 14 13 12 12 11 11 11 10 10 10 11 10 10 10 10 11 11 11 11 10 10 10 10 10 11 12 13 13 12 12 12 12 13 13 13 13 14 14 14 14 15 15 16 16 17 18 19 20 20 21 21 22
11 11 11 12 13 13 13 13 13 13 14 13 14 14 13 13 14 14 13 13 13 13 13 13 13 13 13 13 13 12 12 13 13 14 14 13 12 12 12 11 10 10 11 11 12 12 12 12 12 12 12 13 13 12 13 12 12 11 11 12 13 15 15 16 15 15 15 15 15 15 16 17 17 17 17 17 18 18 19 19 20 21 21 22 22 22
10 11 11 11 12 12 12 13 13 14 15 14 14 14 14 14 14 14 12 12 13 14 13 13 13 13 13 12 12 12 12 13 13 14 14 13 13 12 12 11 11 11 11 11 12 12 12 13 13 13 13 13 13 13 13 13 13 12 12 13 14 16 16 17 17 18 17 17 17 17 18 18 19 19 20 20 20 21 21 21 22 22 23 23 23 24
9 10 11 11 11 11 11 11 12 14 14 14 14 14 14 14 14 13 12 12 12 13 14 13 13 13 13 12 12 12 12 12 13 13 13 12 12 12 11 11 11 11 11 12 12 12 12 12 12 13 13 13 13 14 14 14 13 13 14 15 17 17 18 19 19 19 19 20 20 20 20 21 21 21 22 22 23 23 23 24 25 25 26 26 26 27
7 8 9 9 9 9 8 8 9 10 10 9 10 11 11 11 11 11 11 11 11 12 13 13 12 12 12 12 12 12 12 12 12 12 11 11 11 11 11 10 10 11 11 11 11 12 12 12 12 13 13 14 14 14 15 15 15 15 16 18 19 19 20 20 20 19 19 20 20 21 21 22 23 23 24 25 25 26 26 27 27 28 28 29 29 29
7 6 6 7 8 7 6 6 7 7 6 6 7 7 8 9 9 9 10 10 10 11 11 12 12 11 11 12 12 11 11 12 11 11 12 12 12 11 11 11 11 11 11 11 11 11 12 12 13 13 14 14 15 16 16 17 17 18 19 20 21 21 22 22 22 21 21 21 22 22 23 23 24 25 26 27 27 28 28 29 29 29 29 30 30 31
6 5 5 7 8 7 6 6 6 6 5 5 5 6 6 7 7 8 8 9 10 10 10 11 11 11 12 12 12 12 12 12 12 12 12 13 13 12 12 12 12 12 12 12 13 13 13 13 14 14 14 15 16 17 17 18 19 20 21 22 22 23 23 23 24 24 24 25 25 25 25 25 26 27 28 29 29 30 31 31 32 32 33 33 34 34
6 6 6 7 8 8 8 8 7 6 5 6 6 7 7 7 8 8 8 9 10 10 10 10 11 12 12 13 13 13 13 14 14 14 14 14 14 14 14 14 14 14 14 14 15 15 15 16 16 16 16 17 18 18 19 19 20 21 22 23 24 24 24 25 25 26 26 27 28 28 28 29 29 30 30 31 31 32 32 33 33 34 35 35 36 36
6 6 7 8 8 8 9 9 8 7 6 7 8 8 9 9 9 9 9 9 10 10 10 10 11 11 12 13 14 14 15 15 15 15 15 16 16 16 16 16 16 16 16 17 17 17 17 18 18 18 19 19 20 20 21 21 22 22 23 23 24 25 25 25 26 26 27 28 28 29 29 30 30 31 31 32 32 33 33 34 34 35 36 36 37 37
5 6 7 7 8 9 11 11 11 10 10 10 10 10 10 11 11 10 10 11 11 12 12 12 12 12 13 14 14 15 15 16 16 16 16 17 17 17 17 17 17 18 18 18 19 19 19 20 20 20 21 21 22 22 22 23 23 23 24 24 25 25 25 25 26 26 27 27 28 28 29 29 30 30 31 31 32 32 33 34 35 35 36 37 38 39
6 7 7 7 8 10 11 12 12 10 11 11 11 11 11 11 11 11 12 12 13 13 13 14 14 14 15 15 15 16 16 17 17 17 17 18 18 18 18 18 18 19 19 20 20 21 21 21 22 22 22 23 23 23 23 23 24 24 24 24 25 25 25 25 25 25 26 26 26 27 27 27 28 28 29 29 29 30 30 31 32 34 35 36 37 39
Wind_Direction
234 240 244 240 236 234 236 237 235 238 240 241 240 239 240 241 242 237 234 237 240 244 244 241 245 247 244 242 235 230 228 227 224 222 221 218 217 217 218 221 221 222 226 229 230 233 237 243 248 250 251 248 239 231 226 224 223 223 224 222 218 214 209 207 209 210 208 204 202 202 205 207 207 207 204 205 208 208 208 208 207 206 208 211 212 215
237 238 241 237 233 234 237 236 235 238 240 240 241 243 244 240 241 239 236 241 242 243 246 246 250 250 246 245 237 226 224 224 220 219 219 216 217 218 217 219 221 224 227 226 228 233 236 242 247 248 247 242 232 227 227 226 221 218 218 214 210 208 204 204 205 204 204 204 203 203 205 205 204 203 202 202 203 203 203 202 201 201 202 205 208 210
241 240 242 238 234 236 241 238 233 236 238 238 238 241 243 240 243 242 238 241 240 241 248 253 255 252 248 243 232 223 222 222 218 215 213 212 215 218 217 219 220 222 223 223 228 232 235 242 246 244 244 240 232 227 228 224 216 213 214 212 208 205 205 205 203 201 202 203 205 206 206 204 202 201 199 199 198 196 196 198 200 202 202 202 203 203
240 241 240 237 235 235 241 239 233 236 237 235 234 236 240 239 240 240 237 239 242 246 251 258 260 254 246 235 227 226 225 224 221 218 215 213 214 216 219 220 218 217 218 221 228 232 236 243 244 241 241 239 234 229 226 219 213 213 214 212 209 207 209 208 203 201 201 202 206 208 206 203 201 198 195 195 194 191 192 196 199 201 201 200 200 202
237 237 233 232 231 229 236 238 231 233 237 236 231 231 237 237 235 236 239 243 248 251 250 258 263 249 235 225 226 234 230 224 222 217 217 219 217 217 220 221 216 214 215 219 226 231 237 242 240 239 240 238 233 229 223 218 215 216 214 213 211 211 211 208 204 201 201 202 203 203 201 199 195 192 191 191 190 190 192 194 195 197 196 196 197 199
237 234 228 230 231 227 231 236 230 227 235 239 234 228 230 234 236 238 241 244 247 251 247 251 253 238 234 228 228 235 229 223 222 216 216 219 218 217 218 217 212 212 214 218 225 231 236 239 237 238 241 237 232 227 221 218 217 217 215 212 212 212 210 208 206 203 203 204 201 199 197 194 191 189 189 190 191 191 192 192 191 190 190 191 194 196
233 225 221 225 227 225 230 236 231 222 229 240 234 225 224 230 236 237 237 237 240 246 245 244 234 229 235 236 233 234 223 218 221 219 217 217 215 215 214 212 209 209 213 218 225 232 234 237 236 239 241 236 230 224 219 219 219 217 215 212 211 211 209 208 207 206 206 206 202 198 196 193 191 190 190 191 192 192 192 190 188 188 189 192 196 200
224 218 218 220 223 226 230 235 227 214 222 236 228 217 221 229 233 232 231 233 238 245 248 246 228 222 230 232 232 228 214 212 218 218 220 218 214 212 210 209 208 209 214 219 226 232 234 237 239 241 241 234 227 221 218 218 219 217 215 214 212 210 210 208 207 206 206 204 201 197 194 192 193 193 191 191 193 194 192 189 188 190 192 195 200 204
218 216 217 217 224 228 227 228 219 209 222 233 223 217 226 229 229 230 230 233 239 241 245 245 227 219 229 229 226 222 211 212 217 217 218 217 214 212 210 211 212 213 217 222 229 232 235 239 239 238 237 231 224 219 217 217 217 217 216 215 213 210 210 209 206 205 204 202 198 196 194 194 196 197 193 191 194 194 192 190 191 196 200 205 210 210
218 216 216 217 225 228 227 229 218 212 226 231 223 227 233 231 231 232 227 230 236 233 233 238 226 216 227 228 220 218 216 217 219 219 218 216 215 214 213 214 216 217 220 225 231 235 238 239 236 233 231 226 220 218 216 215 214 214 214 213 210 209 209 208 206 203 202 199 197 196 196 196 197 197 195 194 197 196 194 195 197 202 207 211 216 218
222 222 223 223 224 225 229 233 223 216 224 228 224 228 234 236 236 235 230 225 227 229 230 232 222 210 220 225 217 216 222 221 219 221 222 221 219 217 216 216 218 221 224 228 231 235 237 237 233 228 224 218 214 214 213 212 212 212 211 208 206 206 207 206 205 202 200 199 197 196 196 197 197 197 198 198 198 198 197 198 202 206 209 211 218 224
231 230 232 229 226 225 230 237 232 222 222 225 227 225 229 238 236 232 231 220 215 224 231 229 218 207 212 221 219 224 230 223 218 220 220 220 219 216 215 218 221 225 228 229 232 236 236 236 233 224 219 214 209 211 212 211 211 209 208 206 204 205 205 205 203 199 198 199 199 199 198 199 198 199 201 201 199 198 198 200 203 208 212 214 219 228
234 231 234 232 229 225 227 238 239 226 217 217 223 220 220 230 230 226 224 216 215 221 228 228 216 210 215 219 220 230 234 225 223 228 224 218 213 211 213 216 219 221 225 229 235 237 235 235 233 221 214 212 210 211 211 209 209 207 206 204 203 203 203 204 202 198 198 199 201 202 201 202 202 202 202 201 201 203 205 206 208 213 217 220 223 229
233 235 235 232 234 227 220 229 232 224 216 214 218 216 215 217 219 226 223 218 220 220 224 228 218 218 224 222 226 238 238 225 223 231 229 218 210 208 210 211 212 216 223 231 235 235 232 230 227 218 211 211 212 210 208 206 205 204 203 202 202 202 202 203 202 199 199 199 201 203 202 203 204 204 202 201 201 205 210 212 215 219 224 228 231 233
223 231 228 221 230 228 219 221 221 218 218 219 218 214 215 214 213 223 221 216 220 218 222 228 220 221 224 227 235 242 239 223 216 222 220 215 211 209 209 211 214 222 227 231 231 230 229 225 221 215 211 212 212 209 206 204 203 203 202 201 200 200 201 203 203 202 202 202 202 204 205 205 205 205 204 204 206 209 213 216 219 224 229 233 237 236
220 227 227 221 226 227 224 224 215 212 221 226 220 212 219 220 215 222 219 214 216 214 220 226 223 224 223 229 238 237 236 228 214 216 212 209 210 210 214 219 225 231 231 230 227 225 226 223 219 216 213 213 213 210 208 205 204 204 202 201 201 201 202 203 204 205 205 205 205 205 206 206 206 207 208 209 212 215 218 221 224 227 230 233 236 234
221 228 230 228 232 229 227 225 218 217 222 225 222 218 223 222 213 215 220 222 217 211 221 226 228 232 229 231 237 232 233 233 225 222 214 209 212 212 217 223 228 233 231 230 227 223 224 223 220 218 216 216 215 214 211 208 206 205 204 203 203 203 204 203 203 204 205 205 206 207 208 209 210 211 213 213 215 219 221 224 227 229 230 232 234 233
222 228 230 226 234 236 229 224 225 225 219 218 224 222 221 223 217 212 215 227 223 216 225 227 224 229 227 230 236 231 229 230 228 224 216 216 220 218 219 220 223 228 228 228 226 223 226 225 223 221 219 219 218 216 214 211 210 209 208 207 205 204 203 203 203 204 206 207 208 210 211 211 213 214 216 216 218 221 223 224 227 231 234 234 233 233
224 228 232 225 228 237 232 223 228 234 225 218 220 219 214 216 219 216 213 219 219 218 228 230 226 226 225 230 237 236 231 227 226 223 218 222 225 222 220 218 221 228 230 228 225 224 227 226 224 221 219 219 218 217 216 213 212 213 213 211 208 205 203 204 205 206 209 211 213 214 213 213 215 215 217 219 221 222 222 224 229 233 236 234 230 234
223 222 230 228 224 231 233 223 224 231 228 221 220 222 220 215 214 216 216 216 216 218 225 229 232 233 229 231 238 238 232 223 219 223 224 226 225 221 218 218 222 229 230 226 222 225 229 228 225 221 218 218 218 218 216 213 213 215 214 212 209 207 204 205 208 209 211 213 215 215 214 214 214 215 218 220 220 220 221 224 228 230 229 226 228 235
222 219 225 231 230 229 230 225 221 222 220 219 220 223 222 218 215 217 221 221 218 220 223 224 233 236 229 230 236 234 228 220 216 221 225 226 224 221 221 222 223 223 223 221 218 222 230 232 230 225 220 218 219 220 218 216 217 217 216 213 209 207 207 208 211 212 214 215 216 217 216 214 214 215 217 218 218 218 219 222 224 222 221 222 227 234
221 218 222 230 232 230 230 228 225 224 218 215 219 220 218 216 214 215 225 229 222 221 222 220 230 237 231 230 232 228 225 221 217 220 225 228 228 226 226 227 226 221 219 219 218 222 232 236 237 235 228 220 220 223 222 219 219 218 217 215 210 209 212 215 215 215 216 218 219 220 218 216 215 215 216 216 216 217 218 219 218 217 221 225 230 234
219 215 220 229 229 226 230 230 228 229 222 214 218 220 217 218 217 215 223 228 222 222 223 218 227 234 230 230 229 223 222 222 220 221 223 229 235 235 234 232 227 223 221 223 225 230 236 238 239 240 234 223 220 223 223 222 222 220 218 216 215 215 218 219 218 218 219 221 221 220 218 217 216 215 216 217 217 216 217 218 217 220 226 230 233 235
224 222 223 229 229 227 230 233 231 229 224 220 224 223 219 221 220 218 223 226 219 219 221 222 231 233 228 231 229 220 219 221 224 225 224 229 235 237 233 223 217 220 225 227 230 234 238 240 241 239 232 224 221 222 221 220 221 221 219 221 222 222 221 222 222 222 221 221 220 219 217 217 216 216 216 216 215 215 216 217 220 224 227 229 233 233
226 226 220 220 225 227 231 234 234 231 226 223 227 226 220 219 219 221 226 226 221 221 219 218 229 231 225 228 228 222 220 221 225 229 230 231 231 232 230 218 211 219 225 229 234 238 242 245 244 237 225 220 220 221 219 217 220 224 224 225 227 226 226 226 226 225 223 222 220 219 219 218 218 217 216 215 216 216 216 217 221 224 225 230 234 232
223 223 218 216 218 221 225 228 229 229 226 224 227 229 223 217 219 222 223 222 223 225 221 218 223 222 218 221 222 222 222 221 224 228 227 226 225 228 230 223 218 224 231 239 245 245 244 243 240 234 223 220 222 223 221 222 228 233 233 231 231 230 228 228 228 226 223 221 220 220 220 219 218 218 217 217 218 219 218 221 225 228 230 234 237 234
222 221 220 220 219 220 223 228 229 226 223 222 226 232 231 225 221 220 222 224 222 221 225 228 222 213 212 217 219 222 224 224 229 231 224 222 222 220 219 218 220 227 236 245 246 239 235 234 233 229 225 226 228 228 229 230 234 238 237 235 235 234 229 227 227 225 222 222 222 221 221 220 220 222 222 222 223 224 226 228 231 232 233 235 238 238
221 221 222 221 222 223 226 233 233 226 221 223 225 231 236 235 228 220 223 225 220 219 229 231 221 211 210 214 218 224 228 230 237 239 234 235 234 222 216 215 216 223 233 239 239 233 231 232 233 232 236 241 239 235 234 233 233 236 236 235 235 235 231 227 224 222 221 223 221 220 220 222 223 225 225 224 225 226 228 230 231 231 231 232 235 237
220 223 223 220 222 227 232 235 232 224 222 225 227 230 237 239 231 221 223 226 222 223 227 220 214 216 217 217 222 227 227 228 234 236 232 232 233 222 212 210 212 217 221 223 230 232 232 235 237 240 247 248 244 239 233 228 227 229 231 231 230 230 229 225 223 222 219 217 214 213 215 216 217 219 220 220 221 222 223 225 226 227 228 228 231 235
223 225 224 221 223 230 234 232 228 226 225 225 229 232 235 238 234 225 225 226 221 224 223 210 208 220 225 224 224 224 223 222 224 228 228 230 232 222 201 198 205 203 204 214 226 230 232 236 239 246 251 248 245 242 233 225 222 221 222 226 225 223 222 220 220 219 218 217 214 212 212 213 213 216 217 216 215 217 219 221 223 225 227 230 233 234
230 228 227 224 224 231 234 230 230 234 233 228 230 235 236 236 234 231 229 226 223 223 220 211 212 222 228 227 224 223 223 222 225 234 237 239 240 230 213 210 211 212 225 238 240 239 239 239 241 245 248 246 244 239 230 222 218 216 216 217 216 216 218 218 217 217 218 220 219 217 215 215 216 218 217 216 216 218 220 222 224 227 230 234 235 232
233 227 227 223 222 230 233 231 233 238 236 233 235 243 244 237 232 233 233 232 228 219 213 214 219 223 225 225 224 224 223 222 232 241 241 242 243 235 222 219 220 225 237 243 243 242 242 242 241 238 238 242 241 235 227 221 217 219 220 217 214 214 215 216 216 217 218 219 220 220 218 216 216 217 217 217 219 222 224 226 229 232 234 234 234 232
228 219 222 223 222 226 228 227 230 232 232 235 238 241 242 237 234 234 235 236 233 224 221 224 224 224 224 223 223 226 226 226 232 235 235 238 239 234 226 224 224 227 232 234 236 240 241 241 239 232 228 232 232 228 225 221 220 227 229 224 219 216 213 213 214 216 218 220 221 223 223 222 222 222 221 223 224 226 229 232 235 235 234 233 232 232
226 215 220 224 217 216 220 223 227 228 230 234 236 237 237 233 231 231 232 234 231 225 226 229 226 225 226 224 222 224 226 229 232 232 231 231 228 223 220 223 224 225 229 232 234 236 239 238 233 228 223 223 223 220 217 216 219 225 228 225 221 216 212 211 212 215 219 221 222 226 228 228 227 227 228 230 230 230 232 235 236 234 233 233 234 233
223 219 222 223 211 205 207 210 218 227 230 229 230 234 234 228 225 226 226 226 222 217 218 224 226 226 225 222 219 220 224 228 233 235 235 232 226 219 217 222 225 225 228 233 234 235 238 236 230 228 227 226 225 221 217 220 223 224 223 222 221 220 218 215 215 217 221 224 227 228 228 228 230 232 235 235 233 232 233 235 234 233 234 234 235 234
222 223 223 220 213 209 210 215 222 226 227 226 228 231 230 228 229 226 219 218 222 221 216 214 215 214 211 211 213 216 218 221 226 231 229 224 222 218 216 221 227 229 233 238 240 240 240 238 233 231 232 233 233 230 226 224 222 220 220 220 220 224 223 218 217 221 224 229 233 234 234 235 237 238 240 241 239 238 239 239 237 238 239 238 238 238
224 225 225 222 221 219 217 221 225 222 219 220 222 223 221 223 228 224 214 211 217 220 214 207 204 204 205 206 205 206 209 210 217 226 224 218 218 221 222 225 229 232 236 241 246 246 246 244 240 239 241 243 246 245 238 230 223 218 220 225 226 225 223 220 222 228 233 238 243 245 246 246 245 244 244 244 243 243 243 242 241 242 243 241 241 241
229 228 225 222 226 226 219 220 226 226 223 218 217 220 220 219 220 217 212 211 211 210 209 206 203 204 206 206 206 210 215 217 223 228 226 222 223 225 228 231 233 236 239 242 245 246 249 250 248 246 247 247 250 252 246 240 238 235 235 237 234 229 226 227 232 236 239 242 246 249 249 248 248 248 248 247 247 247 247 245 244 244 243 242 242 242
233 233 229 225 227 224 219 224 231 231 228 221 220 226 227 223 219 213 213 217 213 206 206 206 203 204 205 206 212 221 226 228 231 231 225 224 227 227 229 232 235 238 242 244 245 246 248 249 247 245 243 242 247 251 250 248 245 245 248 249 243 240 241 243 245 245 244 245 246 246 245 245 246 247 248 248 248 249 249 248 247 246 245 245 246 247
236 237 234 230 228 223 221 227 231 231 228 223 223 230 233 227 220 214 219 225 214 205 207 208 205 207 210 212 220 231 232 228 229 229 226 226 231 232 232 234 235 238 242 246 247 247 247 246 245 243 243 245 248 249 249 247 244 244 248 247 240 237 240 243 246 247 248 250 248 244 242 244 247 248 249 249 250 251 251 252 251 250 250 250 251 251
234 235 233 228 226 227 225 227 231 233 230 225 227 235 235 226 219 219 226 226 211 201 204 206 204 209 215 218 224 231 232 226 223 225 227 229 232 233 235 237 239 241 243 244 246 246 244 242 240 241 245 250 251 250 250 249 246 246 248 245 240 240 243 247 252 253 253 254 252 248 247 249 251 253 253 253 253 254 254 255 255 255 255 255 254 254
234 235 234 231 230 232 229 228 233 235 231 230 236 239 233 225 223 224 227 220 207 201 204 205 207 212 216 218 218 219 221 222 222 224 228 230 231 234 236 238 240 243 244 244 245 246 243 242 242 245 249 252 252 254 256 256 254 253 252 248 246 247 249 252 254 256 257 257 256 254 254 254 255 256 256 257 257 257 258 258 258 257 257 257 256 256
234 232 232 234 235 235 234 234 235 236 237 241 242 238 232 230 228 224 220 213 205 203 205 207 210 212 209 207 209 210 213 219 222 224 227 229 231 234 236 237 239 242 243 245 247 248 247 246 247 250 252 254 254 255 256 256 254 254 254 252 249 249 252 254 256 257 259 260 260 259 258 257 257 257 258 259 260 260 260 260 259 259 259 259 259 259
238 233 228 233 237 235 235 236 236 239 244 243 235 229 230 234 231 223 216 212 207 205 207 208 211 212 206 201 204 207 208 212 217 222 225 229 231 233 236 239 241 243 245 247 248 250 250 249 249 249 250 252 254 254 254 254 252 252 255 257 256 256 257 259 259 259 261 262 263 263 262 261 261 261 262 262 263 262 262 262 262 262 262 263 263 263
238 230 224 230 232 226 225 228 230 234 236 228 218 218 223 228 228 219 211 209 209 208 209 207 207 209 206 202 204 209 211 215 220 224 226 229 233 236 239 242 246 248 250 251 251 252 252 251 251 251 252 254 255 255 255 255 254 254 257 260 262 262 263 262 261 260 261 263 264 264 263 263 263 264 266 266 266 267 267 266 266 265 264 264 264 265
224 222 220 222 219 214 216 224 225 224 222 212 205 208 210 210 212 208 204 207 211 209 208 206 205 207 209 208 211 216 220 224 227 230 232 234 238 242 245 248 252 254 252 250 250 251 253 254 255 257 258 259 260 260 260 260 260 260 261 263 265 266 266 265 264 264 265 265 265 265 265 264 264 266 268 269 269 270 270 270 269 267 266 266 266 268
224 219 214 214 216 215 215 222 226 222 218 212 201 196 195 194 196 198 201 208 212 210 209 211 212 215 219 220 221 224 228 231 233 236 239 241 243 247 250 253 256 257 254 252 252 254 256 258 259 260 261 262 262 263 263 264 264 264 265 266 267 268 268 269 268 268 268 268 268 268 268 267 268 268 270 271 271 271 271 271 270 270 270 270 270 270
229 223 222 226 226 219 212 216 219 212 209 211 203 196 196 195 196 200 206 213 218 219 220 222 223 225 228 229 229 230 234 238 240 241 245 248 250 253 255 257 259 260 258 258 259 261 262 263 263 264 265 265 265 266 266 266 267 267 267 268 268 268 268 269 269 269 269 270 270 270 271 271 271 271 272 273 273 273 272 272 271 271 271 272 272 272
237 236 237 235 227 219 215 214 212 210 214 215 208 204 206 205 204 208 211 215 219 221 224 228 230 231 232 233 236 237 239 242 244 245 248 251 252 254 256 258 260 260 261 262 264 265 266 266 267 268 268 269 269 270 271 271 271 271 271 270 270 270 269 269 269 269 269 270 270 271 271 272 273 273 273 274 275 274 274 273 273 273 273 273 273 273
243 237 237 231 225 227 225 220 217 219 224 222 214 212 214 213 212 213 215 217 219 221 223 228 231 235 237 238 239 241 242 244 245 246 248 250 251 251 253 255 257 258 260 262 265 267 268 270 270 270 271 271 272 272 273 273 274 274 274 273 273 272 271 271 271 271 271 271 272 272 272 273 274 274 275 275 276 276 276 275 275 275 274 274 274 274
233 225 227 226 226 228 223 218 216 219 222 224 222 220 221 221 220 220 223 225 227 228 230 231 235 240 245 247 246 245 244 245 245 247 249 250 250 252 254 254 255 257 260 263 265 268 270 271 271 271 271 271 271 272 273 273 274 275 275 274 274 273 273 272 272 273 273 273 274 274 275 276 276 277 277 278 278 279 279 279 278 277 276 275 275 275